Year,Month,Day,Hour,Minute,Value (Times are PST for temperature in C)
2015,07,05,00,00,17.60
2015,07,05,00,01,17.60
2015,07,05,00,02,17.50
2015,07,05,00,03,17.50
2015,07,05,00,04,17.50
2015,07,05,00,05,17.40
2015,07,05,00,06,17.40
2015,07,05,00,07,17.40
2015,07,05,00,08,17.40
2015,07,05,00,09,17.40
2015,07,05,00,10,17.30
2015,07,05,00,11,17.30
2015,07,05,00,12,17.30
2015,07,05,00,13,17.30
2015,07,05,00,14,17.20
2015,07,05,00,15,17.20
2015,07,05,00,16,17.20
2015,07,05,00,17,17.20
2015,07,05,00,18,17.10
2015,07,05,00,19,17.10
2015,07,05,00,20,17.10
2015,07,05,00,21,17.10
2015,07,05,00,22,17.10
2015,07,05,00,23,17.00
2015,07,05,00,24,17.00
2015,07,05,00,25,16.90
2015,07,05,00,26,16.90
2015,07,05,00,27,16.90
2015,07,05,00,28,16.90
2015,07,05,00,29,16.90
2015,07,05,00,30,16.90
2015,07,05,00,31,16.80
2015,07,05,00,32,16.80
2015,07,05,00,33,16.80
2015,07,05,00,34,16.80
2015,07,05,00,35,16.80
2015,07,05,00,36,16.80
2015,07,05,00,37,16.80
2015,07,05,00,38,16.80
2015,07,05,00,39,16.80
2015,07,05,00,40,16.80
2015,07,05,00,41,16.80
2015,07,05,00,42,16.80
2015,07,05,00,43,16.80
2015,07,05,00,44,16.80
2015,07,05,00,45,16.80
2015,07,05,00,46,16.80
2015,07,05,00,47,16.80
2015,07,05,00,48,16.70
2015,07,05,00,49,16.70
2015,07,05,00,50,16.70
2015,07,05,00,51,16.70
2015,07,05,00,52,16.70
2015,07,05,00,53,16.70
2015,07,05,00,54,16.70
2015,07,05,00,55,16.70
2015,07,05,00,56,16.70
2015,07,05,00,57,16.70
2015,07,05,00,58,16.70
2015,07,05,00,59,16.70
2015,07,05,01,00,16.60
2015,07,05,01,01,16.60
2015,07,05,01,02,16.60
2015,07,05,01,03,16.60
2015,07,05,01,04,16.60
2015,07,05,01,05,16.50
2015,07,05,01,06,16.50
2015,07,05,01,07,16.50
2015,07,05,01,08,16.50
2015,07,05,01,09,16.40
2015,07,05,01,10,16.40
2015,07,05,01,11,16.40
2015,07,05,01,12,16.40
2015,07,05,01,13,16.40
2015,07,05,01,14,16.30
2015,07,05,01,15,16.30
2015,07,05,01,16,16.30
2015,07,05,01,17,16.30
2015,07,05,01,18,16.30
2015,07,05,01,19,16.30
2015,07,05,01,20,16.30
2015,07,05,01,21,16.30
2015,07,05,01,22,16.20
2015,07,05,01,23,16.20
2015,07,05,01,24,16.20
2015,07,05,01,25,16.20
2015,07,05,01,26,16.20
2015,07,05,01,27,16.20
2015,07,05,01,28,16.20
2015,07,05,01,29,16.20
2015,07,05,01,30,16.20
2015,07,05,01,31,16.20
2015,07,05,01,32,16.10
2015,07,05,01,33,16.10
2015,07,05,01,34,16.10
2015,07,05,01,35,16.10
2015,07,05,01,36,16.10
2015,07,05,01,37,16.00
2015,07,05,01,38,16.00
2015,07,05,01,39,16.00
2015,07,05,01,40,15.90
2015,07,05,01,41,15.90
2015,07,05,01,42,15.90
2015,07,05,01,43,15.90
2015,07,05,01,44,15.90
2015,07,05,01,45,15.90
2015,07,05,01,46,15.80
2015,07,05,01,47,15.80
2015,07,05,01,48,15.80
2015,07,05,01,49,15.80
2015,07,05,01,50,15.80
2015,07,05,01,51,15.80
2015,07,05,01,52,15.80
2015,07,05,01,53,15.70
2015,07,05,01,54,15.70
2015,07,05,01,55,15.70
2015,07,05,01,56,15.70
2015,07,05,01,57,15.70
2015,07,05,01,58,15.70
2015,07,05,01,59,15.70
2015,07,05,02,00,15.60
2015,07,05,02,01,15.60
2015,07,05,02,02,15.60
2015,07,05,02,03,15.60
2015,07,05,02,04,15.60
2015,07,05,02,05,15.60
2015,07,05,02,06,15.60
2015,07,05,02,07,15.60
2015,07,05,02,08,15.60
2015,07,05,02,09,15.50
2015,07,05,02,10,15.50
2015,07,05,02,11,15.50
2015,07,05,02,12,15.50
2015,07,05,02,13,15.50
2015,07,05,02,14,15.40
2015,07,05,02,15,15.40
2015,07,05,02,16,15.40
2015,07,05,02,17,15.40
2015,07,05,02,18,15.40
2015,07,05,02,19,15.40
2015,07,05,02,20,15.40
2015,07,05,02,21,15.40
2015,07,05,02,22,15.40
2015,07,05,02,23,15.30
2015,07,05,02,24,15.30
2015,07,05,02,25,15.30
2015,07,05,02,26,15.30
2015,07,05,02,27,15.30
2015,07,05,02,28,15.30
2015,07,05,02,29,15.20
2015,07,05,02,30,15.20
2015,07,05,02,31,15.20
2015,07,05,02,32,15.20
2015,07,05,02,33,15.20
2015,07,05,02,34,15.10
2015,07,05,02,35,15.10
2015,07,05,02,36,15.10
2015,07,05,02,37,15.00
2015,07,05,02,38,15.00
2015,07,05,02,39,15.00
2015,07,05,02,40,15.00
2015,07,05,02,41,15.00
2015,07,05,02,42,15.00
2015,07,05,02,43,15.00
2015,07,05,02,44,15.00
2015,07,05,02,45,15.00
2015,07,05,02,46,15.00
2015,07,05,02,47,15.00
2015,07,05,02,48,15.00
2015,07,05,02,49,15.00
2015,07,05,02,50,15.00
2015,07,05,02,51,15.00
2015,07,05,02,52,15.00
2015,07,05,02,53,15.00
2015,07,05,02,54,15.00
2015,07,05,02,55,14.90
2015,07,05,02,56,14.90
2015,07,05,02,57,14.90
2015,07,05,02,58,14.80
2015,07,05,02,59,14.80
2015,07,05,03,00,14.80
2015,07,05,03,01,14.80
2015,07,05,03,02,14.70
2015,07,05,03,03,14.70
2015,07,05,03,04,14.70
2015,07,05,03,05,14.70
2015,07,05,03,06,14.60
2015,07,05,03,07,14.60
2015,07,05,03,08,14.60
2015,07,05,03,09,14.60
2015,07,05,03,10,14.60
2015,07,05,03,11,14.50
2015,07,05,03,12,14.50
2015,07,05,03,13,14.50
2015,07,05,03,14,14.50
2015,07,05,03,15,14.40
2015,07,05,03,16,14.40
2015,07,05,03,17,14.40
2015,07,05,03,18,14.40
2015,07,05,03,19,14.40
2015,07,05,03,20,14.30
2015,07,05,03,21,14.30
2015,07,05,03,22,14.30
2015,07,05,03,23,14.30
2015,07,05,03,24,14.30
2015,07,05,03,25,14.30
2015,07,05,03,26,14.20
2015,07,05,03,27,14.20
2015,07,05,03,28,14.20
2015,07,05,03,29,14.20
2015,07,05,03,30,14.20
2015,07,05,03,31,14.10
2015,07,05,03,32,14.10
2015,07,05,03,33,14.10
2015,07,05,03,34,14.10
2015,07,05,03,35,14.10
2015,07,05,03,36,14.10
2015,07,05,03,37,14.10
2015,07,05,03,38,14.10
2015,07,05,03,39,14.00
2015,07,05,03,40,14.00
2015,07,05,03,41,14.00
2015,07,05,03,42,14.00
2015,07,05,03,43,13.90
2015,07,05,03,44,13.90
2015,07,05,03,45,13.90
2015,07,05,03,46,13.90
2015,07,05,03,47,13.90
2015,07,05,03,48,13.90
2015,07,05,03,49,13.90
2015,07,05,03,50,13.90
2015,07,05,03,51,13.90
2015,07,05,03,52,13.80
2015,07,05,03,53,13.80
2015,07,05,03,54,13.80
2015,07,05,03,55,13.80
2015,07,05,03,56,13.80
2015,07,05,03,57,13.80
2015,07,05,03,58,13.80
2015,07,05,03,59,13.80
2015,07,05,04,00,13.80
2015,07,05,04,01,13.80
2015,07,05,04,02,13.80
2015,07,05,04,03,13.70
2015,07,05,04,04,13.70
2015,07,05,04,05,13.70
2015,07,05,04,06,13.70
2015,07,05,04,07,13.70
2015,07,05,04,08,13.70
2015,07,05,04,09,13.70
2015,07,05,04,10,13.60
2015,07,05,04,11,13.60
2015,07,05,04,12,13.60
2015,07,05,04,13,13.60
2015,07,05,04,14,13.60
2015,07,05,04,15,13.60
2015,07,05,04,16,13.50
2015,07,05,04,17,13.50
2015,07,05,04,18,13.50
2015,07,05,04,19,13.50
2015,07,05,04,20,13.50
2015,07,05,04,21,13.50
2015,07,05,04,22,13.50
2015,07,05,04,23,13.50
2015,07,05,04,24,13.50
2015,07,05,04,25,13.50
2015,07,05,04,26,13.40
2015,07,05,04,27,13.40
2015,07,05,04,28,13.40
2015,07,05,04,29,13.40
2015,07,05,04,30,13.40
2015,07,05,04,31,13.40
2015,07,05,04,32,13.40
2015,07,05,04,33,13.40
2015,07,05,04,34,13.40
2015,07,05,04,35,13.40
2015,07,05,04,36,13.40
2015,07,05,04,37,13.40
2015,07,05,04,38,13.40
2015,07,05,04,39,13.40
2015,07,05,04,40,13.40
2015,07,05,04,41,13.40
2015,07,05,04,42,13.30
2015,07,05,04,43,13.30
2015,07,05,04,44,13.30
2015,07,05,04,45,13.30
2015,07,05,04,46,13.30
2015,07,05,04,47,13.30
2015,07,05,04,48,13.30
2015,07,05,04,49,13.30
2015,07,05,04,50,13.30
2015,07,05,04,51,13.30
2015,07,05,04,52,13.30
2015,07,05,04,53,13.30
2015,07,05,04,54,13.30
2015,07,05,04,55,13.20
2015,07,05,04,56,13.20
2015,07,05,04,57,13.20
2015,07,05,04,58,13.20
2015,07,05,04,59,13.20
2015,07,05,05,00,13.20
2015,07,05,05,01,13.20
2015,07,05,05,02,13.20
2015,07,05,05,03,13.20
2015,07,05,05,04,13.20
2015,07,05,05,05,13.10
2015,07,05,05,06,13.10
2015,07,05,05,07,13.10
2015,07,05,05,08,13.10
2015,07,05,05,09,13.10
2015,07,05,05,10,13.10
2015,07,05,05,11,13.10
2015,07,05,05,12,13.10
2015,07,05,05,13,13.10
2015,07,05,05,14,13.10
2015,07,05,05,15,13.10
2015,07,05,05,16,13.10
2015,07,05,05,17,13.10
2015,07,05,05,18,13.10
2015,07,05,05,19,13.10
2015,07,05,05,20,13.10
2015,07,05,05,21,13.10
2015,07,05,05,22,13.10
2015,07,05,05,23,13.10
2015,07,05,05,24,13.00
2015,07,05,05,25,13.00
2015,07,05,05,26,13.00
2015,07,05,05,27,13.00
2015,07,05,05,28,13.00
2015,07,05,05,29,12.90
2015,07,05,05,30,12.90
2015,07,05,05,31,12.90
2015,07,05,05,32,12.90
2015,07,05,05,33,12.90
2015,07,05,05,34,12.90
2015,07,05,05,35,12.90
2015,07,05,05,36,12.90
2015,07,05,05,37,12.90
2015,07,05,05,38,12.80
2015,07,05,05,39,12.80
2015,07,05,05,40,12.80
2015,07,05,05,41,12.80
2015,07,05,05,42,12.80
2015,07,05,05,43,12.80
2015,07,05,05,44,12.80
2015,07,05,05,45,12.80
2015,07,05,05,46,12.80
2015,07,05,05,47,12.80
2015,07,05,05,48,12.80
2015,07,05,05,49,12.80
2015,07,05,05,50,12.80
2015,07,05,05,51,12.80
2015,07,05,05,52,12.80
2015,07,05,05,53,12.80
2015,07,05,05,54,12.80
2015,07,05,05,55,12.80
2015,07,05,05,56,12.80
2015,07,05,05,57,12.80
2015,07,05,05,58,12.80
2015,07,05,05,59,12.80
2015,07,05,06,00,12.80
2015,07,05,06,01,12.80
2015,07,05,06,02,12.80
2015,07,05,06,03,12.80
2015,07,05,06,04,12.80
2015,07,05,06,05,12.80
2015,07,05,06,06,12.80
2015,07,05,06,07,12.80
2015,07,05,06,08,12.80
2015,07,05,06,09,12.80
2015,07,05,06,10,12.80
2015,07,05,06,11,12.80
2015,07,05,06,12,12.80
2015,07,05,06,13,12.80
2015,07,05,06,14,12.80
2015,07,05,06,15,12.80
2015,07,05,06,16,12.80
2015,07,05,06,17,12.80
2015,07,05,06,18,12.80
2015,07,05,06,19,12.80
2015,07,05,06,20,12.80
2015,07,05,06,21,12.80
2015,07,05,06,22,12.80
2015,07,05,06,23,12.80
2015,07,05,06,24,12.80
2015,07,05,06,25,12.80
2015,07,05,06,26,12.80
2015,07,05,06,27,12.80
2015,07,05,06,28,12.80
2015,07,05,06,29,12.80
2015,07,05,06,30,12.80
2015,07,05,06,31,12.80
2015,07,05,06,32,12.80
2015,07,05,06,33,12.80
2015,07,05,06,34,12.80
2015,07,05,06,35,12.80
2015,07,05,06,36,12.80
2015,07,05,06,37,12.80
2015,07,05,06,38,12.80
2015,07,05,06,39,12.80
2015,07,05,06,40,12.90
2015,07,05,06,41,12.90
2015,07,05,06,42,12.90
2015,07,05,06,43,12.90
2015,07,05,06,44,12.90
2015,07,05,06,45,12.90
2015,07,05,06,46,12.90
2015,07,05,06,47,12.90
2015,07,05,06,48,12.90
2015,07,05,06,49,12.90
2015,07,05,06,50,12.90
2015,07,05,06,51,13.00
2015,07,05,06,52,13.00
2015,07,05,06,53,13.00
2015,07,05,06,54,13.00
2015,07,05,06,55,13.00
2015,07,05,06,56,13.10
2015,07,05,06,57,13.10
2015,07,05,06,58,13.10
2015,07,05,06,59,13.10
2015,07,05,07,00,13.10
2015,07,05,07,01,13.10
2015,07,05,07,02,13.10
2015,07,05,07,03,13.10
2015,07,05,07,04,13.10
2015,07,05,07,05,13.10
2015,07,05,07,06,13.10
2015,07,05,07,07,13.20
2015,07,05,07,08,13.20
2015,07,05,07,09,13.20
2015,07,05,07,10,13.20
2015,07,05,07,11,13.20
2015,07,05,07,12,13.20
2015,07,05,07,13,13.20
2015,07,05,07,14,13.20
2015,07,05,07,15,13.20
2015,07,05,07,16,13.20
2015,07,05,07,17,13.20
2015,07,05,07,18,13.30
2015,07,05,07,19,13.30
2015,07,05,07,20,13.30
2015,07,05,07,21,13.30
2015,07,05,07,22,13.30
2015,07,05,07,23,13.30
2015,07,05,07,24,13.30
2015,07,05,07,25,13.30
2015,07,05,07,26,13.30
2015,07,05,07,27,13.30
2015,07,05,07,28,13.40
2015,07,05,07,29,13.40
2015,07,05,07,30,13.40
2015,07,05,07,31,13.40
2015,07,05,07,32,13.40
2015,07,05,07,33,13.40
2015,07,05,07,34,13.50
2015,07,05,07,35,13.50
2015,07,05,07,36,13.50
2015,07,05,07,37,13.50
2015,07,05,07,38,13.60
2015,07,05,07,39,13.60
2015,07,05,07,40,13.60
2015,07,05,07,41,13.70
2015,07,05,07,42,13.70
2015,07,05,07,43,13.70
2015,07,05,07,44,13.80
2015,07,05,07,45,13.80
2015,07,05,07,46,13.80
2015,07,05,07,47,13.80
2015,07,05,07,48,13.90
2015,07,05,07,49,13.90
2015,07,05,07,50,13.90
2015,07,05,07,51,14.00
2015,07,05,07,52,14.00
2015,07,05,07,53,14.00
2015,07,05,07,54,14.10
2015,07,05,07,55,14.10
2015,07,05,07,56,14.10
2015,07,05,07,57,14.10
2015,07,05,07,58,14.20
2015,07,05,07,59,14.20
2015,07,05,08,00,14.20
2015,07,05,08,01,14.20
2015,07,05,08,02,14.20
2015,07,05,08,03,14.30
2015,07,05,08,04,14.30
2015,07,05,08,05,14.30
2015,07,05,08,06,14.30
2015,07,05,08,07,14.40
2015,07,05,08,08,14.40
2015,07,05,08,09,14.40
2015,07,05,08,10,14.40
2015,07,05,08,11,14.50
2015,07,05,08,12,14.50
2015,07,05,08,13,14.60
2015,07,05,08,14,14.60
2015,07,05,08,15,14.60
2015,07,05,08,16,14.60
2015,07,05,08,17,14.70
2015,07,05,08,18,14.70
2015,07,05,08,19,14.70
2015,07,05,08,20,14.80
2015,07,05,08,21,14.80
2015,07,05,08,22,14.90
2015,07,05,08,23,14.90
2015,07,05,08,24,15.00
2015,07,05,08,25,15.00
2015,07,05,08,26,15.00
2015,07,05,08,27,15.00
2015,07,05,08,28,15.00
2015,07,05,08,29,15.00
2015,07,05,08,30,15.10
2015,07,05,08,31,15.10
2015,07,05,08,32,15.20
2015,07,05,08,33,15.20
2015,07,05,08,34,15.30
2015,07,05,08,35,15.30
2015,07,05,08,36,15.40
2015,07,05,08,37,15.40
2015,07,05,08,38,15.50
2015,07,05,08,39,15.50
2015,07,05,08,40,15.50
2015,07,05,08,41,15.60
2015,07,05,08,42,15.60
2015,07,05,08,43,15.70
2015,07,05,08,44,15.70
2015,07,05,08,45,15.70
2015,07,05,08,46,15.80
2015,07,05,08,47,15.80
2015,07,05,08,48,15.80
2015,07,05,08,49,15.80
2015,07,05,08,50,15.90
2015,07,05,08,51,15.90
2015,07,05,08,52,15.90
2015,07,05,08,53,16.00
2015,07,05,08,54,16.00
2015,07,05,08,55,16.00
2015,07,05,08,56,16.10
2015,07,05,08,57,16.10
2015,07,05,08,58,16.20
2015,07,05,08,59,16.20
2015,07,05,09,00,16.20
2015,07,05,09,01,16.20
2015,07,05,09,02,16.30
2015,07,05,09,03,16.30
2015,07,05,09,04,16.40
2015,07,05,09,05,16.40
2015,07,05,09,06,16.50
2015,07,05,09,07,16.50
2015,07,05,09,08,16.50
2015,07,05,09,09,16.60
2015,07,05,09,10,16.60
2015,07,05,09,11,16.70
2015,07,05,09,12,16.70
2015,07,05,09,13,16.70
2015,07,05,09,14,16.80
2015,07,05,09,15,16.80
2015,07,05,09,16,16.80
2015,07,05,09,17,16.80
2015,07,05,09,18,16.80
2015,07,05,09,19,16.80
2015,07,05,09,20,16.90
2015,07,05,09,21,16.90
2015,07,05,09,22,16.90
2015,07,05,09,23,16.90
2015,07,05,09,24,16.90
2015,07,05,09,25,16.90
2015,07,05,09,26,16.90
2015,07,05,09,27,16.90
2015,07,05,09,28,16.90
2015,07,05,09,29,17.00
2015,07,05,09,30,17.00
2015,07,05,09,31,17.00
2015,07,05,09,32,17.10
2015,07,05,09,33,17.10
2015,07,05,09,34,17.10
2015,07,05,09,35,17.10
2015,07,05,09,36,17.10
2015,07,05,09,37,17.20
2015,07,05,09,38,17.20
2015,07,05,09,39,17.20
2015,07,05,09,40,17.20
2015,07,05,09,41,17.20
2015,07,05,09,42,17.30
2015,07,05,09,43,17.30
2015,07,05,09,44,17.30
2015,07,05,09,45,17.30
2015,07,05,09,46,17.30
2015,07,05,09,47,17.30
2015,07,05,09,48,17.30
2015,07,05,09,49,17.30
2015,07,05,09,50,17.30
2015,07,05,09,51,17.30
2015,07,05,09,52,17.40
2015,07,05,09,53,17.40
2015,07,05,09,54,17.40
2015,07,05,09,55,17.40
2015,07,05,09,56,17.40
2015,07,05,09,57,17.50
2015,07,05,09,58,17.50
2015,07,05,09,59,17.50
2015,07,05,10,00,17.60
2015,07,05,10,01,17.60
2015,07,05,10,02,17.60
2015,07,05,10,03,17.60
2015,07,05,10,04,17.60
2015,07,05,10,05,17.60
2015,07,05,10,06,17.60
2015,07,05,10,07,17.60
2015,07,05,10,08,17.60
2015,07,05,10,09,17.70
2015,07,05,10,10,17.70
2015,07,05,10,11,17.70
2015,07,05,10,12,17.70
2015,07,05,10,13,17.70
2015,07,05,10,14,17.80
2015,07,05,10,15,17.80
2015,07,05,10,16,17.80
2015,07,05,10,17,17.80
2015,07,05,10,18,17.80
2015,07,05,10,19,17.80
2015,07,05,10,20,17.90
2015,07,05,10,21,17.90
2015,07,05,10,22,18.00
2015,07,05,10,23,18.00
2015,07,05,10,24,18.10
2015,07,05,10,25,18.10
2015,07,05,10,26,18.10
2015,07,05,10,27,18.20
2015,07,05,10,28,18.20
2015,07,05,10,29,18.20
2015,07,05,10,30,18.20
2015,07,05,10,31,18.30
2015,07,05,10,32,18.30
2015,07,05,10,33,18.30
2015,07,05,10,34,18.40
2015,07,05,10,35,18.40
2015,07,05,10,36,18.50
2015,07,05,10,37,18.50
2015,07,05,10,38,18.50
2015,07,05,10,39,18.60
2015,07,05,10,40,18.60
2015,07,05,10,41,18.70
2015,07,05,10,42,18.70
2015,07,05,10,43,18.70
2015,07,05,10,44,18.80
2015,07,05,10,45,18.80
2015,07,05,10,46,18.90
2015,07,05,10,47,18.90
2015,07,05,10,48,19.00
2015,07,05,10,49,19.10
2015,07,05,10,50,19.10
2015,07,05,10,51,19.20
2015,07,05,10,52,19.20
2015,07,05,10,53,19.30
2015,07,05,10,54,19.30
2015,07,05,10,55,19.40
2015,07,05,10,56,19.50
2015,07,05,10,57,19.60
2015,07,05,10,58,19.60
2015,07,05,10,59,19.70
2015,07,05,11,00,19.80
2015,07,05,11,01,19.80
2015,07,05,11,02,19.80
2015,07,05,11,03,19.90
2015,07,05,11,04,19.90
2015,07,05,11,05,20.00
2015,07,05,11,06,20.00
2015,07,05,11,07,20.00
2015,07,05,11,08,20.10
2015,07,05,11,09,20.20
2015,07,05,11,10,20.20
2015,07,05,11,11,20.20
2015,07,05,11,12,20.20
2015,07,05,11,13,20.20
2015,07,05,11,14,20.20
2015,07,05,11,15,20.30
2015,07,05,11,16,20.30
2015,07,05,11,17,20.30
2015,07,05,11,18,20.30
2015,07,05,11,19,20.40
2015,07,05,11,20,20.40
2015,07,05,11,21,20.40
2015,07,05,11,22,20.40
2015,07,05,11,23,20.40
2015,07,05,11,24,20.50
2015,07,05,11,25,20.50
2015,07,05,11,26,20.60
2015,07,05,11,27,20.60
2015,07,05,11,28,20.60
2015,07,05,11,29,20.60
2015,07,05,11,30,20.70
2015,07,05,11,31,20.70
2015,07,05,11,32,20.70
2015,07,05,11,33,20.80
2015,07,05,11,34,20.80
2015,07,05,11,35,20.80
2015,07,05,11,36,20.90
2015,07,05,11,37,20.90
2015,07,05,11,38,21.00
2015,07,05,11,39,21.10
2015,07,05,11,40,21.10
2015,07,05,11,41,21.20
2015,07,05,11,42,21.20
2015,07,05,11,43,21.30
2015,07,05,11,44,21.30
2015,07,05,11,45,21.30
2015,07,05,11,46,21.40
2015,07,05,11,47,21.40
2015,07,05,11,48,21.40
2015,07,05,11,49,21.40
2015,07,05,11,50,21.50
2015,07,05,11,51,21.50
2015,07,05,11,52,21.60
2015,07,05,11,53,21.60
2015,07,05,11,54,21.70
2015,07,05,11,55,21.70
2015,07,05,11,56,21.80
2015,07,05,11,57,21.80
2015,07,05,11,58,21.80
2015,07,05,11,59,21.90
2015,07,05,12,00,21.90
2015,07,05,12,01,21.90
2015,07,05,12,02,21.90
2015,07,05,12,03,22.00
2015,07,05,12,04,22.00
2015,07,05,12,05,22.10
2015,07,05,12,06,22.10
2015,07,05,12,07,22.10
2015,07,05,12,08,22.10
2015,07,05,12,09,22.20
2015,07,05,12,10,22.20
2015,07,05,12,11,22.20
2015,07,05,12,12,22.30
2015,07,05,12,13,22.30
2015,07,05,12,14,22.30
2015,07,05,12,15,22.30
2015,07,05,12,16,22.30
2015,07,05,12,17,22.30
2015,07,05,12,18,22.40
2015,07,05,12,19,22.40
2015,07,05,12,20,22.40
2015,07,05,12,21,22.40
2015,07,05,12,22,22.50
2015,07,05,12,23,22.50
2015,07,05,12,24,22.50
2015,07,05,12,25,22.50
2015,07,05,12,26,22.50
2015,07,05,12,27,22.50
2015,07,05,12,28,22.50
2015,07,05,12,29,22.50
2015,07,05,12,30,22.50
2015,07,05,12,31,22.50
2015,07,05,12,32,22.50
2015,07,05,12,33,22.60
2015,07,05,12,34,22.60
2015,07,05,12,35,22.60
2015,07,05,12,36,22.60
2015,07,05,12,37,22.70
2015,07,05,12,38,22.70
2015,07,05,12,39,22.80
2015,07,05,12,40,22.80
2015,07,05,12,41,22.80
2015,07,05,12,42,22.80
2015,07,05,12,43,22.90
2015,07,05,12,44,22.90
2015,07,05,12,45,23.00
2015,07,05,12,46,23.00
2015,07,05,12,47,23.10
2015,07,05,12,48,23.20
2015,07,05,12,49,23.30
2015,07,05,12,50,23.30
2015,07,05,12,51,23.40
2015,07,05,12,52,23.50
2015,07,05,12,53,23.50
2015,07,05,12,54,23.60
2015,07,05,12,55,23.70
2015,07,05,12,56,23.70
2015,07,05,12,57,23.80
2015,07,05,12,58,23.80
2015,07,05,12,59,23.80
2015,07,05,13,00,23.80
2015,07,05,13,01,23.80
2015,07,05,13,02,23.90
2015,07,05,13,03,23.90
2015,07,05,13,04,24.00
2015,07,05,13,05,24.10
2015,07,05,13,06,24.10
2015,07,05,13,07,24.20
2015,07,05,13,08,24.20
2015,07,05,13,09,24.30
2015,07,05,13,10,24.30
2015,07,05,13,11,24.30
2015,07,05,13,12,24.30
2015,07,05,13,13,24.40
2015,07,05,13,14,24.40
2015,07,05,13,15,24.40
2015,07,05,13,16,24.40
2015,07,05,13,17,24.40
2015,07,05,13,18,24.50
2015,07,05,13,19,24.50
2015,07,05,13,20,24.50
2015,07,05,13,21,24.60
2015,07,05,13,22,24.60
2015,07,05,13,23,24.60
2015,07,05,13,24,24.60
2015,07,05,13,25,24.60
2015,07,05,13,26,24.60
2015,07,05,13,27,24.60
2015,07,05,13,28,24.60
2015,07,05,13,29,24.60
2015,07,05,13,30,24.60
2015,07,05,13,31,24.60
2015,07,05,13,32,24.70
2015,07,05,13,33,24.70
2015,07,05,13,34,24.70
2015,07,05,13,35,24.70
2015,07,05,13,36,24.70
2015,07,05,13,37,24.80
2015,07,05,13,38,24.80
2015,07,05,13,39,24.80
2015,07,05,13,40,24.90
2015,07,05,13,41,24.90
2015,07,05,13,42,25.00
2015,07,05,13,43,25.00
2015,07,05,13,44,25.10
2015,07,05,13,45,25.10
2015,07,05,13,46,25.10
2015,07,05,13,47,25.10
2015,07,05,13,48,25.10
2015,07,05,13,49,25.10
2015,07,05,13,50,25.10
2015,07,05,13,51,25.20
2015,07,05,13,52,25.20
2015,07,05,13,53,25.20
2015,07,05,13,54,25.30
2015,07,05,13,55,25.30
2015,07,05,13,56,25.30
2015,07,05,13,57,25.30
2015,07,05,13,58,25.30
2015,07,05,13,59,25.30
2015,07,05,14,00,25.30
2015,07,05,14,01,25.30
2015,07,05,14,02,25.30
2015,07,05,14,03,25.30
2015,07,05,14,04,25.30
2015,07,05,14,05,25.30
2015,07,05,14,06,25.30
2015,07,05,14,07,25.40
2015,07,05,14,08,25.40
2015,07,05,14,09,25.50
2015,07,05,14,10,25.50
2015,07,05,14,11,25.50
2015,07,05,14,12,25.50
2015,07,05,14,13,25.60
2015,07,05,14,14,25.60
2015,07,05,14,15,25.60
2015,07,05,14,16,25.60
2015,07,05,14,17,25.70
2015,07,05,14,18,25.70
2015,07,05,14,19,25.70
2015,07,05,14,20,25.70
2015,07,05,14,21,25.70
2015,07,05,14,22,25.70
2015,07,05,14,23,25.70
2015,07,05,14,24,25.70
2015,07,05,14,25,25.80
2015,07,05,14,26,25.80
2015,07,05,14,27,25.80
2015,07,05,14,28,25.80
2015,07,05,14,29,25.80
2015,07,05,14,30,25.80
2015,07,05,14,31,25.80
2015,07,05,14,32,25.90
2015,07,05,14,33,25.90
2015,07,05,14,34,25.90
2015,07,05,14,35,25.90
2015,07,05,14,36,25.90
2015,07,05,14,37,25.90
2015,07,05,14,38,25.90
2015,07,05,14,39,25.90
2015,07,05,14,40,25.90
2015,07,05,14,41,25.90
2015,07,05,14,42,25.90
2015,07,05,14,43,25.90
2015,07,05,14,44,25.90
2015,07,05,14,45,25.90
2015,07,05,14,46,25.90
2015,07,05,14,47,25.80
2015,07,05,14,48,25.80
2015,07,05,14,49,25.80
2015,07,05,14,50,25.80
2015,07,05,14,51,25.90
2015,07,05,14,52,25.90
2015,07,05,14,53,25.90
2015,07,05,14,54,25.90
2015,07,05,14,55,25.90
2015,07,05,14,56,25.90
2015,07,05,14,57,25.80
2015,07,05,14,58,25.80
2015,07,05,14,59,25.80
2015,07,05,15,00,25.80
2015,07,05,15,01,25.80
2015,07,05,15,02,25.80
2015,07,05,15,03,25.80
2015,07,05,15,04,25.80
2015,07,05,15,05,25.80
2015,07,05,15,06,25.80
2015,07,05,15,07,25.80
2015,07,05,15,08,25.80
2015,07,05,15,09,25.80
2015,07,05,15,10,25.80
2015,07,05,15,11,25.80
2015,07,05,15,12,25.80
2015,07,05,15,13,25.80
2015,07,05,15,14,25.80
2015,07,05,15,15,25.90
2015,07,05,15,16,25.90
2015,07,05,15,17,25.90
2015,07,05,15,18,25.90
2015,07,05,15,19,25.90
2015,07,05,15,20,25.90
2015,07,05,15,21,25.90
2015,07,05,15,22,25.90
2015,07,05,15,23,25.90
2015,07,05,15,24,25.90
2015,07,05,15,25,25.90
2015,07,05,15,26,25.90
2015,07,05,15,27,25.90
2015,07,05,15,28,25.90
2015,07,05,15,29,25.90
2015,07,05,15,30,25.90
2015,07,05,15,31,25.90
2015,07,05,15,32,25.90
2015,07,05,15,33,25.90
2015,07,05,15,34,25.90
2015,07,05,15,35,25.90
2015,07,05,15,36,25.90
2015,07,05,15,37,25.90
2015,07,05,15,38,25.90
2015,07,05,15,39,26.00
2015,07,05,15,40,26.00
2015,07,05,15,41,26.10
2015,07,05,15,42,26.10
2015,07,05,15,43,26.10
2015,07,05,15,44,26.20
2015,07,05,15,45,26.20
2015,07,05,15,46,26.20
2015,07,05,15,47,26.20
2015,07,05,15,48,26.20
2015,07,05,15,49,26.20
2015,07,05,15,50,26.20
2015,07,05,15,51,26.30
2015,07,05,15,52,26.30
2015,07,05,15,53,26.30
2015,07,05,15,54,26.30
2015,07,05,15,55,26.30
2015,07,05,15,56,26.40
2015,07,05,15,57,26.40
2015,07,05,15,58,26.40
2015,07,05,15,59,26.40
2015,07,05,16,00,26.40
2015,07,05,16,01,26.40
2015,07,05,16,02,26.40
2015,07,05,16,03,26.40
2015,07,05,16,04,26.50
2015,07,05,16,05,26.50
2015,07,05,16,06,26.50
2015,07,05,16,07,26.50
2015,07,05,16,08,26.60
2015,07,05,16,09,26.60
2015,07,05,16,10,26.60
2015,07,05,16,11,26.70
2015,07,05,16,12,26.70
2015,07,05,16,13,26.70
2015,07,05,16,14,26.70
2015,07,05,16,15,26.70
2015,07,05,16,16,26.80
2015,07,05,16,17,26.80
2015,07,05,16,18,26.80
2015,07,05,16,19,26.90
2015,07,05,16,20,26.90
2015,07,05,16,21,26.90
2015,07,05,16,22,26.90
2015,07,05,16,23,26.90
2015,07,05,16,24,26.90
2015,07,05,16,25,26.90
2015,07,05,16,26,26.90
2015,07,05,16,27,26.90
2015,07,05,16,28,26.90
2015,07,05,16,29,27.00
2015,07,05,16,30,27.00
2015,07,05,16,31,27.10
2015,07,05,16,32,27.10
2015,07,05,16,33,27.20
2015,07,05,16,34,27.20
2015,07,05,16,35,27.30
2015,07,05,16,36,27.30
2015,07,05,16,37,27.40
2015,07,05,16,38,27.40
2015,07,05,16,39,27.50
2015,07,05,16,40,27.50
2015,07,05,16,41,27.60
2015,07,05,16,42,27.60
2015,07,05,16,43,27.60
2015,07,05,16,44,27.60
2015,07,05,16,45,27.70
2015,07,05,16,46,27.70
2015,07,05,16,47,27.70
2015,07,05,16,48,27.70
2015,07,05,16,49,27.70
2015,07,05,16,50,27.70
2015,07,05,16,51,27.70
2015,07,05,16,52,27.70
2015,07,05,16,53,27.70
2015,07,05,16,54,27.70
2015,07,05,16,55,27.70
2015,07,05,16,56,27.70
2015,07,05,16,57,27.70
2015,07,05,16,58,27.70
2015,07,05,16,59,27.80
2015,07,05,17,00,27.80
2015,07,05,17,01,27.80
2015,07,05,17,02,27.80
2015,07,05,17,03,27.80
2015,07,05,17,04,27.90
2015,07,05,17,05,27.90
2015,07,05,17,06,27.90
2015,07,05,17,07,27.90
2015,07,05,17,08,27.90
2015,07,05,17,09,27.90
2015,07,05,17,10,27.90
2015,07,05,17,11,27.90
2015,07,05,17,12,27.90
2015,07,05,17,13,27.90
2015,07,05,17,14,27.90
2015,07,05,17,15,27.90
2015,07,05,17,16,27.90
2015,07,05,17,17,27.90
2015,07,05,17,18,27.80
2015,07,05,17,19,27.80